Weather History for Pineville, WV

Change the Weather History Date:

Sunday, June 30, 2013

  Actual Average (KBKW) Record (KBKW)
Temperature  
Mean Temperature 74 °F 70 °F  
Max Temperature 88 °F 80 °F 100 °F (1936)
Min Temperature 60 °F 61 °F 43 °F (1923)
Degree Days  
Heating Degree Days 0 0  
Month to date heating degree days 38  
Since 1 June heating degree days 39  
Since 1 July heating degree days 5340  
Cooling Degree Days 9 5  
Month to date cooling degree days 111  
Year to date cooling degree days 152  
Since 1 June cooling degree days 111  
Growing Degree Days 24 (Base 50)    
Moisture  
Dew Point 65 °F    
Average Humidity 80    
Maximum Humidity 100    
Minimum Humidity 42    
Precipitation  
Precipitation 0.00 in 0.14 in 1.46 in (1915)
Month to date precipitation 4.00  
Year to date precipitation 21.16  
Snow  
Snow 0.00 in - - ()
Month to date snowfall  
Since 1 September snowfall  
Snow Depth -    
Sea Level Pressure  
Sea Level Pressure 29.84 in    
Wind  
Wind Speed - (North)    
Max Wind Speed -    
Max Gust Speed -    
Visibility 10 miles    
Events Rain    
T = Trace of Precipitation, MM = Missing Value Source: NWS Daily Summary

Daily Weather History Graph

Daily Weather History Graph

Search for Another Location

Airport:

Trip Planner

Search our weather history database for the weather conditions in past years. The results will help you decide how hot, cold, wet, or windy it might be!

Date:

Astronomy

Jun. 30, 2013 Rise Set
Actual Time 6:08 AM EDT 8:51 PM EDT
Civil Twilight 5:37 AM EDT 9:22 PM EDT
Nautical Twilight 4:58 AM EDT 10:01 PM EDT
Astronomical Twilight 4:14 AM EDT 10:45 PM EDT
Moon 1:00 AM EDT (6/30) 2:10 PM EDT (6/30)
Length of Visible Light 15h 45m
Length of Day
14h 43m
Last Quarter, 45% of the Moon is Illuminated
Jun 30
Last Quarter
Jul 8
New
Jul 15
First Quarter
Jul 22
Full
Jul 29
Last Quarter

Hourly Weather History & Observations

Time (EDT) Temp. Heat Index Dew Point Humidity Pressure Visibility Wind Dir Wind Speed Gust Speed Precip Events Conditions
12:15 AM 64.4 °F - 64.4 °F 100% 29.79 in 10.0 mi North - - N/A   Scattered Clouds
12:35 AM 64.2 °F - 64.2 °F 100% 29.80 in 10.0 mi North - - N/A   Clear
12:55 AM 63.7 °F - 63.7 °F 100% 29.81 in 10.0 mi North - - N/A   Clear
1:15 AM 63.7 °F - 63.7 °F 100% 29.81 in 10.0 mi North - - N/A   Clear
1:35 AM 63.5 °F - 63.5 °F 100% 29.81 in 10.0 mi North - - N/A   Clear
1:55 AM 63.5 °F - 63.5 °F 100% 29.81 in 10.0 mi North - - N/A   Clear
2:15 AM 62.8 °F - 62.8 °F 100% 29.80 in 10.0 mi North - - N/A   Clear
2:35 AM 62.4 °F - 62.4 °F 100% 29.80 in 7.0 mi North - - N/A   Clear
2:55 AM 62.1 °F - 62.1 °F 100% 29.80 in 7.0 mi North - - N/A   Clear
3:15 AM 61.9 °F - 61.9 °F 100% 29.81 in 10.0 mi North - - N/A   Clear
3:35 AM 62.6 °F - 62.6 °F 100% 29.80 in 10.0 mi North - - N/A   Clear
3:55 AM 61.7 °F - 61.7 °F 100% 29.80 in 10.0 mi North - - N/A   Clear
4:15 AM 61.7 °F - 61.7 °F 100% 29.80 in 7.0 mi North - - N/A   Scattered Clouds
4:35 AM 61.3 °F - 61.3 °F 100% 29.80 in 10.0 mi North - - N/A   Scattered Clouds
4:55 AM 61.2 °F - 61.2 °F 100% 29.80 in 7.0 mi North - - N/A   Scattered Clouds
5:15 AM 61.3 °F - 61.3 °F 100% 29.80 in 10.0 mi North - - N/A   Scattered Clouds
5:35 AM 61.2 °F - 61.2 °F 100% 29.81 in 10.0 mi North - - N/A   Scattered Clouds
5:55 AM 60.8 °F - 60.8 °F 100% 29.82 in 10.0 mi North - - N/A   Clear
6:15 AM 60.1 °F - 60.1 °F 100% 29.82 in 7.0 mi North - - N/A   Clear
6:35 AM 60.6 °F - 60.6 °F 100% 29.83 in 4.0 mi North - - N/A   Scattered Clouds
6:55 AM 60.8 °F - 60.8 °F 100% 29.84 in 1.5 mi North - - N/A   Mostly Cloudy
7:15 AM 60.8 °F - 60.8 °F 100% 29.84 in 10.0 mi North - - N/A   Clear
7:35 AM 61.3 °F - 61.3 °F 100% 29.84 in 10.0 mi North - - N/A   Clear
7:55 AM 62.4 °F - 62.4 °F 100% 29.85 in 10.0 mi North - - N/A   Clear
8:15 AM 63.5 °F - 63.5 °F 100% 29.85 in 10.0 mi North - - N/A   Clear
8:35 AM 66.2 °F - 66.2 °F 100% 29.86 in 10.0 mi North - - N/A   Clear
8:55 AM 68.9 °F - 66.9 °F 93% 29.86 in 10.0 mi North - - N/A   Clear
9:15 AM 71.4 °F - 66.4 °F 84% 29.86 in 10.0 mi North - - N/A   Clear
9:35 AM 73.6 °F - 66.2 °F 78% 29.87 in 10.0 mi North - - N/A   Clear
9:55 AM 75.9 °F - 66.7 °F 73% 29.87 in 10.0 mi North - - N/A   Clear
10:15 AM 78.3 °F - 67.5 °F 69% 29.86 in 10.0 mi North - - N/A   Clear
10:35 AM 79.2 °F - 66.6 °F 65% 29.86 in 10.0 mi North - - N/A   Clear
10:55 AM 80.1 °F 82.1 °F 66.2 °F 62% 29.86 in 10.0 mi North - - N/A   Clear
11:15 AM 81.3 °F 83.3 °F 65.8 °F 59% 29.86 in 10.0 mi North - - N/A   Clear
11:35 AM 82.2 °F 84.0 °F 64.9 °F 56% 29.86 in 10.0 mi North - - N/A   Clear
11:55 AM 83.3 °F 84.4 °F 63.7 °F 51% 29.86 in 10.0 mi North - - N/A   Scattered Clouds
12:15 PM 81.0 °F 83.0 °F 66.0 °F 60% 29.86 in 10.0 mi North - - N/A   Mostly Cloudy
12:35 PM 84.2 °F 85.6 °F 64.2 °F 51% 29.86 in 10.0 mi North - - N/A   Mostly Cloudy
12:55 PM 81.9 °F 84.1 °F 66.2 °F 59% 29.86 in 10.0 mi North - - N/A   Overcast
1:15 PM 84.7 °F 86.1 °F 64.2 °F 50% 29.85 in 10.0 mi North - - N/A   Mostly Cloudy
1:35 PM 82.9 °F 85.0 °F 66.0 °F 56% 29.85 in 10.0 mi North - - N/A   Mostly Cloudy
1:55 PM 84.7 °F 87.1 °F 66.2 °F 54% 29.85 in 10.0 mi North - - N/A   Mostly Cloudy
2:15 PM 84.4 °F 86.6 °F 65.8 °F 54% 29.84 in 10.0 mi North - - N/A   Scattered Clouds
2:35 PM 85.1 °F 87.1 °F 65.7 °F 52% 29.84 in 10.0 mi North - - N/A   Scattered Clouds
2:55 PM 85.1 °F 85.7 °F 62.4 °F 46% 29.84 in 10.0 mi North - - N/A   Scattered Clouds
3:15 PM 87.1 °F 88.3 °F 63.9 °F 46% 29.83 in 10.0 mi North - - N/A   Scattered Clouds
3:35 PM 87.8 °F 88.8 °F 63.1 °F 44% 29.83 in 10.0 mi North - - N/A   Scattered Clouds
3:55 PM 85.6 °F 86.3 °F 62.4 °F 46% 29.84 in 10.0 mi North - - N/A   Scattered Clouds
4:15 PM 87.3 °F 88.0 °F 62.6 °F 44% 29.83 in 10.0 mi North - - N/A   Scattered Clouds
4:35 PM 88.0 °F 89.0 °F 63.3 °F 44% 29.83 in 10.0 mi North - - N/A   Scattered Clouds
4:55 PM 88.3 °F 88.9 °F 62.4 °F 42% 29.83 in 10.0 mi North - - N/A   Clear
5:15 PM 86.7 °F 87.0 °F 61.9 °F 43% 29.83 in 10.0 mi North - - N/A   Clear
5:35 PM 86.9 °F 87.5 °F 62.8 °F 44% 29.83 in 10.0 mi North - - N/A   Clear
5:55 PM 84.9 °F 86.3 °F 64.2 °F 50% 29.83 in 10.0 mi North - - N/A   Clear
6:15 PM 79.7 °F - 69.8 °F 72% 29.84 in 10.0 mi North - - N/A   Clear
6:35 PM 80.1 °F 83.4 °F 70.9 °F 73% 29.84 in 10.0 mi North - - N/A   Clear
6:55 PM 79.5 °F - 72.9 °F 80% 29.84 in 10.0 mi North - - N/A   Clear
7:15 PM 79.2 °F - 73.0 °F 81% 29.84 in 10.0 mi North - - N/A   Clear
7:35 PM 78.1 °F - 73.6 °F 86% 29.85 in 10.0 mi North - - N/A   Clear
7:55 PM 77.2 °F - 73.2 °F 88% 29.85 in 10.0 mi North - - N/A   Clear
8:15 PM 76.1 °F - 71.8 °F 86% 29.86 in 10.0 mi North - - N/A   Clear
8:35 PM 74.7 °F - 70.9 °F 88% 29.86 in 10.0 mi North - - N/A   Clear
8:55 PM 73.6 °F - 69.8 °F 88% 29.87 in 10.0 mi North - - N/A   Scattered Clouds
9:15 PM 73.4 °F - 70.0 °F 89% 29.87 in 10.0 mi North - - N/A   Mostly Cloudy
9:35 PM 73.0 °F - 69.8 °F 90% 29.87 in 10.0 mi North - - N/A   Scattered Clouds
9:55 PM 71.8 °F - 70.0 °F 94% 29.88 in 10.0 mi North - - N/A   Clear
10:15 PM 71.8 °F - 69.8 °F 93% 29.89 in 10.0 mi North - - N/A   Scattered Clouds
10:35 PM 71.6 °F - 69.8 °F 94% 29.89 in 10.0 mi North - - N/A   Mostly Cloudy
10:55 PM 72.0 °F - 69.8 °F 93% 29.89 in 10.0 mi North - - N/A   Overcast
11:15 PM 71.6 °F - 69.8 °F 94% 29.89 in 10.0 mi North - - N/A Rain Light Rain
11:35 PM 71.1 °F - 70.5 °F 98% 29.90 in 7.0 mi North - - N/A Rain Light Rain
11:55 PM 71.1 °F - 68.4 °F 91% 29.91 in 10.0 mi North - - N/A Rain Light Rain